Location: Campestrin
(46.4667°N, 11.7167°E)
Time: 15:28:18
(UTC+00:00)

SeaSat 1 - Pass Details

Date: 18 April 2021
Orbit: 744 x 747 km, 108.0° (Epoch: 06 May)

Event Time Altitude Azimuth Distance (km) Brightness Sun altitude
Rises 21:19:47 0° 32° (NNE) 3,202 6.1 -27.1°
Reaches altitude 10° 21:22:09 10° 39° (NE) 2,274 5.2 -27.3°
Enters shadow 21:24:38 28° 55° (NE) 1,393 3.8 -27.5°
